Location: Czaszyn
(49.4502°N, 22.2178°E)
Time: 02:30:31
(UTC+01:00)

ISS - Visible Passes

Search period start: 23 January 2019 00:00
Search period end: 02 February 2019 00:00
Orbit: 404 x 411 km, 51.6° (Epoch: 23 January)

Date Brightness Start Highest point End Pass type
(mag) Time Alt. Az. Time Alt. Az. Time Alt. Az.
23 Jan -1.6 18:39:46 10° SW 18:41:04 20° SSW 18:41:04 20° SSW visible
24 Jan -2.5 17:48:52 10° SSW 17:51:39 25° SE 17:52:03 25° SE visible
24 Jan -0.3 19:24:38 10° WSW 19:24:46 11° WSW 19:24:46 11° WSW visible
25 Jan -1.7 16:58:21 10° S 17:00:29 16° SE 17:02:38 10° E visible
25 Jan -2.8 18:33:17 10° WSW 18:35:40 43° SW 18:35:40 43° SW visible
26 Jan -3.3 17:42:05 10° SW 17:45:16 47° SSE 17:46:30 30° E visible
26 Jan -0.7 19:18:29 10° W 19:19:13 16° W 19:19:13 16° W visible
27 Jan -2.6 16:51:02 10° SSW 16:53:59 31° SE 16:56:57 10° E visible
27 Jan -3.5 18:27:02 10° WSW 18:30:00 66° WNW 18:30:00 66° WNW visible
28 Jan -3.9 17:35:38 10° WSW 17:38:56 82° SSE 17:40:44 25° ENE visible
28 Jan -1.0 19:12:21 10° W 19:13:26 19° WNW 19:13:26 19° WNW visible
29 Jan -3.6 18:20:51 10° W 18:24:07 59° N 18:24:08 59° N visible
30 Jan -3.7 17:29:21 10° W 17:32:39 69° NNW 17:34:49 20° ENE visible
30 Jan -1.4 19:06:06 10° WNW 19:07:31 23° WNW 19:07:31 23° WNW visible
31 Jan -3.6 18:14:37 10° WNW 18:17:53 56° N 18:18:11 53° NNE visible
01 Feb -3.5 17:23:06 10° W 17:26:22 57° N 17:28:51 16° ENE visible
01 Feb -1.8 18:59:47 10° WNW 19:01:34 29° WNW 19:01:34 29° WNW visible
